This is the latest recevied weather packets stored in our database for station/object BAGASKAR. If no packets are shown the sender has not sent any weather packets the latest 10 day(s).
| Time | Temp. | Humidity | Pressure | Rain* | Wind** | Luminosity | Snow |
|---|---|---|---|---|---|---|---|
| 1777709223 | 9.44° C | 85% | 1011.8 hPa | - | - | - | - |
| 1777708023 | 8.89° C | 95% | 1011.8 hPa | - | - | - | - |
| 1777706823 | 8.33° C | 92% | 1011.9 hPa | - | - | - | - |
| 1777705623 | 8.33° C | 93% | 1011.9 hPa | - | - | - | - |
| 1777704422 | 8.89° C | 93% | 1011.8 hPa | - | - | - | - |
| 1777703222 | 8.33° C | 98% | 1011.7 hPa | - | - | - | - |
| 1777702023 | 7.78° C | 100% | 1011.8 hPa | - | - | - | - |
| 1777700823 | 6.67° C | 100% | 1011.9 hPa | - | - | - | - |
| 1777699622 | 6.11° C | 100% | 1011.9 hPa | - | - | - | - |
| 1777698422 | 5.56° C | 100% | 1012.1 hPa | - | - | - | - |
| 1777697222 | 5.56° C | 100% | 1012.1 hPa | - | - | - | - |
| 1777696022 | 5.56° C | 100% | 1012.2 hPa | - | - | - | - |
| 1777694822 | 5° C | 100% | 1012.3 hPa | - | - | - | - |
| 1777693622 | 4.44° C | 100% | 1012.1 hPa | - | - | - | - |
| 1777692422 | 4.44° C | 100% | 1012.3 hPa | - | - | - | - |
| 1777691222 | 3.89° C | 100% | 1012.3 hPa | - | - | - | - |
| 1777690022 | 4.44° C | 100% | 1012.5 hPa | - | - | - | - |
| 1777688822 | 3.89° C | 100% | 1012.6 hPa | - | - | - | - |
| 1777687622 | 3.89° C | 100% | 1012.7 hPa | - | - | - | - |
| 1777686422 | 3.89° C | 100% | 1012.9 hPa | - | - | - | - |
| 1777685222 | 3.89° C | 100% | 1013.1 hPa | - | - | - | - |
| 1777684022 | 4.44° C | 100% | 1013.1 hPa | - | - | - | - |
| 1777682822 | 4.44° C | 100% | 1013.3 hPa | - | - | - | - |
| 1777681622 | 4.44° C | 100% | 1013.6 hPa | - | - | - | - |
| 1777680421 | 4.44° C | 100% | 1013.9 hPa | - | - | - | - |
* Rain since midnight (hover to see other rain measurements)
** Current wind speed in m/s (hover to see current wind gust speed)